Main page
METAR-TAF:

METAR-TAF

Airports :

Payam International Airport

Karaj, Iran

latitude: 35-46-34N, longitude: 050-49-36E, elevation: 1271 m

Current weather observation

The report was made 1 hour and 9 minutes ago, at 16:00 UTC
Calm wind
Temperature 15°C
Humidity 20%
Pressure 1021 hPa
Visibility 10 km or more
Few clouds at a height of 10000 ft

METAR: OIIP 181600Z 00000KT 9999 FEW100 15/M08 Q1021

Time: 20:39 (17:09 UTC)


TAF: missing

Weather observations and forecasts of more than 4000 airports (METAR and TAF reports).

The available stations are represented by yellow and red dots on the map.

Hover mouse over dot to see the name of the station.

Then click to see weather observations and forecasts.

To change the map : click on the green buttons with a black cross to zoom in, on the green button with a dash to zoom out, or on the green arrows for adjacent maps.


METAR-TAF: